TimeEST,TemperatureF,Dew PointF,Humidity,Sea Level PressureIn,VisibilityMPH,Wind Direction,Wind SpeedMPH,Gust SpeedMPH,PrecipitationIn,Events,Conditions,WindDirDegrees,DateUTC
12:54 AM,32.0,16.0,52,30.16,10.0,NNW,11.5,19.6,N/A,,Clear,330,2012-12-06 05:54:00
1:54 AM,32.0,16.0,52,30.18,10.0,NW,10.4,31.1,N/A,,Clear,310,2012-12-06 06:54:00
2:54 AM,30.9,16.0,54,30.19,10.0,NNW,6.9,16.1,N/A,,Clear,330,2012-12-06 07:54:00
3:54 AM,30.0,16.0,56,30.22,10.0,West,5.8,-,N/A,,Mostly Cloudy,270,2012-12-06 08:54:00
4:54 AM,28.9,16.0,58,30.24,10.0,WNW,3.5,-,N/A,,Clear,300,2012-12-06 09:54:00
5:54 AM,28.9,16.0,58,30.27,10.0,NW,6.9,-,N/A,,Clear,310,2012-12-06 10:54:00
6:54 AM,28.4,15.8,59,30.28,10.0,NW,3.5,-,N/A,,Clear,320,2012-12-06 11:54:00
7:54 AM,30.0,15.1,54,30.32,10.0,NW,3.5,-,N/A,,Clear,310,2012-12-06 12:54:00
8:54 AM,32.0,15.1,50,30.33,10.0,NW,10.4,-,N/A,,Clear,310,2012-12-06 13:54:00
9:54 AM,33.1,15.1,48,30.34,10.0,WNW,11.5,-,N/A,,Clear,300,2012-12-06 14:54:00
10:54 AM,36.0,16.0,44,30.32,10.0,WNW,6.9,-,N/A,,Clear,290,2012-12-06 15:54:00
11:54 AM,37.0,16.0,42,30.30,10.0,WNW,6.9,-,N/A,,Clear,290,2012-12-06 16:54:00
12:54 PM,37.9,15.1,39,30.29,10.0,NW,3.5,-,N/A,,Clear,320,2012-12-06 17:54:00
1:54 PM,39.9,16.0,38,30.27,10.0,Variable,6.9,-,N/A,,Clear,0,2012-12-06 18:54:00
2:54 PM,39.0,15.1,38,30.29,10.0,NW,4.6,-,N/A,,Clear,310,2012-12-06 19:54:00
3:54 PM,37.9,15.1,39,30.30,10.0,NW,5.8,-,N/A,,Clear,310,2012-12-06 20:54:00
4:54 PM,36.0,15.1,43,30.31,10.0,Calm,Calm,-,N/A,,Clear,0,2012-12-06 21:54:00
5:54 PM,33.1,16.0,50,30.31,10.0,Calm,Calm,-,N/A,,Clear,0,2012-12-06 22:54:00
6:54 PM,28.0,16.0,61,30.32,10.0,Calm,Calm,-,N/A,,Clear,0,2012-12-06 23:54:00
7:54 PM,28.9,16.0,58,30.32,10.0,Calm,Calm,-,N/A,,Clear,0,2012-12-07 00:54:00
8:54 PM,28.0,17.1,63,30.32,10.0,Calm,Calm,-,N/A,,Clear,0,2012-12-07 01:54:00
9:54 PM,27.0,17.1,66,30.33,10.0,Calm,Calm,-,N/A,,Clear,0,2012-12-07 02:54:00
10:54 PM,26.1,17.1,69,30.32,10.0,Calm,Calm,-,N/A,,Clear,0,2012-12-07 03:54:00
11:54 PM,24.1,17.1,75,30.32,10.0,Calm,Calm,-,N/A,,Clear,0,2012-12-07 04:54:00